THORAD DELTA 1 DEB, 9986

Orbit data source: Space-Track

THORAD DELTA 1 DEB, 9986 is space debris in LEO originally from a launch on Fri, 15 Nov 1974 UTC launched from the Air Force Western Test Range (AFWTR). Debris objects in space refer to the collection of defunct objects orbiting the Earth. Examples of debris include non-operational satellites, rocket bodies, and fragments generated from explosions, collisions, or faulty payload assembly.

Loading next visibility...
Identifier
9986, 1974-089ED
Orbit
LEO
Country
Flag of USUS
Related business
Manufacturer
Unknown
Mission
Spacecraft
Bus & Motor
Unknown
Mass
Unknown
Launch date (UTC)
1974-11-15 (51 years ago)
Launch vehicle
Unknown
Launch site
Air Force Western Test Range (AFWTR)
Object type
Payload
Rocket body
Debris
Shape & HBR
Unknown shape, 1.1 m
Radar Cross Section
Small (<0.1 m²)

Expand to show TLE details & history
Last TLE update: 2 days ago

TLE from 2 days ago
0 THORAD DELTA 1 DEB
1 09986U 74089ED  25352.56004332  .00001595  00000-0  17467-2 0  9997
2 09986 103.2531 222.7375 0373437 154.6916 207.3023 13.48374937407340
Epoch: 2025-12-18T13:26Z
TLE epoch observation values (Epoch: 2025-12-18T13:26:27.742Z)
Latitude
-0.00003°
Longitude
-66.29188°
Altitude
1,330.446 km
Speed
7.071 km/s
True Right ascension
14h 50m 57s
True Declination
0° 00' 00"
Sunlit
Object was in daylight at epoch
Visualization orbit readout
Latitude
Unknown
Longitude
Unknown
Altitude
Unknown
Speed
Unknown
Apparent Right ascension
Unknown
Apparent Declination
Unknown
Sunlit
N/A
Visualization observer readout
Local Sidereal Time
07:00:36
Azimuth
Unknown
Elevation
Unknown
Doppler factor
Unknown
Orbital elements
Apogee altitude
1,354.112 km
Perigee altitude
797.4 km
Semi-major axis
7,453.893 km
Eccentricity
0.03734
Inclination
103.2531°
RAAN
222.7375°
Arg. of periapsis
154.6916°
True anomaly
205.41809°
Mean anomaly
207.3023°
Eccentric anomaly
206.35253°
Mean motion
3.37263 °/min
Orbital period
106.74 mins
BSTAR
0.0017467
Loading maneuver chart data...
Computing Atmospheric mass density...

Documentation

Showing up to 5 results
|